User: anonymous   Login
Location: Caltech
(34.1382°N, 118.1253°W)
Time: 13:14:33
(UTC-08:00)
Language:

AO-27 - Orbit

View from above orbital plane
View from above orbital plane
View from above satellite
View from above satellite

Ground track
Ground track

The orbit data is extracted from the following two-line orbital elements,

1 22825U 93061C   14325.86180618  .00000209  00000-0  98480-4 0  8242
2 22825 098.6826 271.2395 0008403 188.5112 234.7304 14.29785757103316
Epoch (UTC): 21 November 2014 20:41:00
Eccentricity: 0.0008403
inclination: 98.6826°
perigee height: 786 km
apogee height: 798 km
right ascension of ascending node: 271.2395°
argument of perigee: 188.5112°
revolutions per day: 14.29785757
mean anomaly at epoch: 234.7304°
orbit number at epoch: 10331

The dashed part of the orbit path shows where the satellite is in the earth's shadow,  

DLR